EHI
0 0 0 0 0 0 0 0 0 0 0 0 0 0 0 0 0 0 0 0 0 0 0 0 0 0 0 0 0 0 0 0 0 0 0 0 0 0 0 0 0 0 0 0
0 0 0 0 0 0 0 0 0 0 0 0 0 0 0 0 0 0 0 0 0 0 0 0 0 0 0 0 0 0 0 0 0 0 0 0 0 0 0 0 0 0 0 0
0 0 0 0 0 0 0 0 0 0 0 0 0 0 0 0 0 0 0 0 0 0 0 0 0 0 0 0 0 0 0 0 0 0 0 0 0 0 0 0 0 0 0 0
0 0 0 0 0 0 0 0 0 0 0 0 0 0 0 0 0 0 0 0 0 0 0 0 0 0 0 0 0 0 0 0 0 0 0 0 0 0 0 0 0 0 0 0
0 0 0 0 0 0 0 0 0 0 0 0 0 0 0 0 0 0 0 0 0 0 0 0 0 0 0 0 0 0 0 0 0 0 0 0 0 0 0 0 0 0 0 0
0 0 0 0 0 0 0 0 0 0 0 0 0 0 0 0 0 0 0 0 0 0 0 0 0 0 0 0 0 0 0 0 0 0 0 0 0 0 0 0 0 0 0 0
0 0 0 0 0 0 0 0 0 0 0 0 0 0 0 0 0 0 0 0 0 0 0 0 0 0 0 0 0 0 0 0 0 0 0 0 0 0 0 0 0 0 0 0
0 0 0 0 0 0 0 0 0 0 0 0 0 0 0 0 0 0 0 0 0 0 0 0 0 0 0 0 0 0 0 0 0 0 0 0 0 0 0 0 0 0 0 0
0 0 0 0 0 0 0 0 0 0 0 0 0 0 0 0 0 0 0 0 0 0 0 0 0 0 0 0 0 0 0 0 0 0 0 0 0 0 0 0 0 0 0 0
0 0 0 0 0 0 0 0 0 0 0 0 0 0 0 0 0 0 0 0 0 0 0 0 0 0 0 0 0 0 0 0 0 0 0 0 0 0 0 0 0 0 0 0
0 0 0 0 0 0 0 0 0 0 0 0 0 0 0 0 0 0 0 0 0 0 0 0 0 0 0 0 0 0 0 0 0 0 0 0 0 0 0 0 0 0 0 0
0 0 0 0 0 0 0 0 0 0 0 0 0 0 0 0 0 0 0 0 0 0 0 0 0 0 0 0 0 0 0 0 0 0 0 0 0 0 0 0 0 0 0 0
0 0 0 0 0 0 0 0 0 0 0 0 0 0 0 0 0 0 0 0 0 0 0 0 0 0 0 0 0 0 0 0 0 0 0 0 0 0 0 0 0 0 0 0
0 0 0 0 0 0 0 0 0 0 0 0 0 0 0 0 0 0 0 0 0 0 0 0 0 0 0 0 0 0 0 0 0 0 0 0 0 0 0 0 0 0 0 0
0 0 0 0 0 0 0 0 0 0 0 0 0 0 0 0 0 0 0 0 0 0 0 0 0 0 0 0 0 0 0 0 0 0 0 0 0 0 0 0 0 0 0 0
0 0 0 0 0 0 0 0 0 0 0 0 0 0 0 0 0 0 0 0 0 0 0 0 0 0 0 0 0 0 0 0 0 0 0 0 0 0 0 0 0 0 0 0
0 0 0 0 0 0 0 0 0 0 0 0 0 0 0 0 0 0 0 0 0 0 0 0 0 0 0 0 0 0 0 0 0 0 0 0 0 0 0 0 0 0 0 0
0 0 0 0 0 0 0 0 0 0 0 0 0 0 0 0 0 0 0 0 0 0 0 0 0 0 0 0 0 0 0 0 0 0 0 0 0 0 0 0 0 0 0 0
0 0 0 0 0 0 0 0 0 0 0 0 0 0 0 0 0 0 0 0 0 0 0 0 0 0 0 0 0 0 0 0 0 0 0 0 0 0 0 0 0 0 0 0
0 0 0 0 0 0 0 0 0 0 0 0 0 0 0 0 0 0 0 0 0 0 0 0 0 0 0 0 0 0 0 0 0 0 0 0 0 0 0 0 0 0 0 0
0 0 0 0 0 0 0 0 0 0 0 0 0 0 0 0 0 0 0 0 0 0 0 0 0 0 0 0 0 0 0 0 0 0 0 0 0 0 0 0 0 0 0 0
0 0 0 0 0 0 0 0 0 0 0 0 0 0 0 0 0 0 0 0 0 0 0 0 0 0 0 0 0 0 0 0 0 0 0 0 0 0 0 0 0 0 0 0
0 0 0 0 0 0 0 0 0 0 0 0 0 0 0 0 0 0 0 0 0 0 0 0 0 0 0 0 0 0 0 0 0 0 0 0 0 0 0 0 0 0 0 0
0 0 0 0 0 0 0 0 0 0 0 0 0 0 0 0 0 0 0 0 0 0 0 0 0 0 0 0 0 0 0 0 0 0 0 0 0 0 0 0 0 0 0 0
0 0 0 0 0 0 0 0 0 0 0 0 0 0 0 0 0 0 0 0 0 0 0 0 0 0 0 0 0 0 0 0 0 0 0 0 0 0 0 0 0 0 0 0
0 0 0 0 0 0 0 0 0 0 0 0 0 0 0 0 0 0 0 0 0 0 0 0 0 0 0 0 0 0 0 0 0 0 0 0 0 0 0 0 0 0 0 0
Wind_Speed
6 4 6 5 3 5 7 8 12 12 5 3 9 15 18 14 4 5 6 6 7 6 5 2 6 9 11 11 11 13 14 13 11 10 11 11 12 9 8 8 11 12 12 14
5 7 5 3 3 4 7 9 11 10 4 7 11 14 16 5 4 4 5 7 7 8 8 8 3 5 8 10 10 11 13 14 13 11 10 8 7 7 7 7 10 13 14 15
9 4 2 3 6 7 8 8 8 8 9 8 7 9 3 7 8 7 8 8 7 8 8 8 6 2 5 8 10 10 11 13 14 12 6 5 5 5 8 10 11 13 15 15
6 0 2 3 6 6 7 3 5 6 6 6 5 6 7 6 7 7 7 7 6 6 6 5 5 3 2 6 8 9 10 11 12 12 10 12 12 14 15 10 9 10 13 14
5 2 2 5 4 3 4 4 6 6 5 6 5 5 9 4 6 7 7 6 6 6 6 6 4 3 3 3 5 7 8 9 10 11 12 12 13 12 7 8 10 12 12 14
10 1 1 2 1 1 6 7 9 4 3 5 4 4 7 1 5 6 6 6 6 7 7 7 7 6 4 1 2 4 6 7 8 10 11 13 14 11 9 10 10 10 9 11
6 7 3 1 3 5 4 4 3 1 3 4 2 3 8 2 6 7 6 6 6 7 7 7 8 8 7 5 1 3 4 6 7 9 11 12 13 13 13 11 10 9 9 10
4 4 7 5 2 2 3 2 3 4 4 5 3 6 7 1 4 7 6 5 6 7 6 7 7 7 7 6 4 2 3 5 6 8 9 10 11 9 10 11 10 11 10 10
4 1 3 2 1 1 3 2 1 3 6 6 6 6 5 1 4 6 6 6 6 6 5 6 6 5 5 5 4 3 2 4 5 7 8 9 10 10 11 11 11 10 9 8
4 5 3 4 2 3 3 5 2 3 4 5 6 6 2 2 3 4 5 5 5 5 5 5 5 5 4 3 3 2 2 3 4 5 6 6 8 10 10 10 12 11 11 10
3 4 2 4 7 7 5 3 4 4 5 4 5 5 4 5 4 5 5 5 5 4 4 4 4 5 5 5 5 3 3 3 4 5 6 6 7 8 8 9 11 11 11 11
1 3 5 7 1 3 2 3 4 4 6 5 6 8 3 3 4 4 4 4 3 3 3 3 4 6 6 7 7 6 5 5 5 5 5 6 6 7 7 9 10 10 11 11
1 2 5 3 2 2 1 3 4 5 5 6 7 11 3 7 9 6 5 4 4 4 4 4 5 6 7 7 7 7 7 6 6 5 5 6 6 7 8 9 9 9 10 10
2 4 6 8 9 7 8 7 7 7 7 10 13 17 14 14 9 5 5 5 5 5 5 5 5 6 7 7 7 8 7 7 7 6 6 7 7 7 8 8 8 8 8 9
2 5 8 11 12 12 14 14 12 13 14 15 17 18 17 8 4 5 5 6 7 7 6 6 7 7 8 8 8 8 8 8 8 7 7 8 7 7 7 7 8 8 8 9
3 5 7 10 11 13 18 19 16 16 15 16 16 16 6 2 4 5 6 8 9 7 6 8 9 9 8 8 9 9 9 9 8 8 9 8 8 7 7 8 8 9 9 9
5 4 5 6 6 10 12 11 9 6 5 6 8 7 4 5 6 6 7 9 8 8 9 9 9 8 8 8 8 9 9 9 9 9 9 9 8 8 8 8 9 9 9 9
5 4 3 5 5 9 9 3 0 2 5 6 7 4 5 5 5 6 8 7 8 10 10 9 8 8 8 8 8 8 9 9 10 10 10 9 8 8 9 9 10 10 9 9
3 5 4 3 5 10 9 5 2 2 4 4 4 5 6 7 8 6 6 9 9 9 9 8 7 7 8 9 9 9 9 9 10 10 10 9 8 9 10 10 11 10 9 9
1 3 4 4 5 8 5 2 3 2 3 5 6 6 8 9 8 6 8 10 10 9 8 7 7 7 8 9 9 10 10 10 11 10 10 10 9 10 11 11 11 9 8 9
3 4 6 5 5 9 3 3 1 2 3 5 6 6 7 6 7 9 10 9 8 8 8 8 7 7 8 9 9 10 11 11 11 10 10 10 10 10 11 11 10 10 9 8
6 6 7 6 7 8 2 1 1 4 5 7 7 7 8 9 9 10 10 9 9 9 8 8 8 8 9 9 10 11 12 11 11 11 11 11 10 10 10 11 10 9 9 9
6 5 3 5 6 3 2 4 5 6 7 7 7 8 8 9 10 10 9 9 9 8 8 8 8 10 10 9 9 12 13 12 12 11 11 11 11 9 9 10 11 10 8 8
4 3 4 6 5 6 8 8 7 8 8 9 8 9 8 9 9 9 8 8 8 8 8 8 9 11 12 10 10 11 13 12 12 12 11 10 10 11 10 8 8 8 8 8
5 5 5 9 9 9 5 7 9 9 9 10 9 8 7 8 9 8 8 9 8 8 7 8 9 12 13 12 12 12 12 12 12 11 10 10 10 11 10 9 8 10 9 11
5 6 7 8 7 7 8 8 9 9 9 8 8 8 7 7 8 8 8 7 8 9 9 10 11 12 14 14 14 12 11 11 11 10 10 9 9 9 10 10 11 13 16 22
Wind_Direction
220 235 258 286 348 343 328 304 295 294 312 322 281 287 296 304 338 13 15 20 14 1 347 340 180 182 178 180 184 183 185 187 187 193 199 203 209 208 208 205 201 198 196 197
255 247 270 352 9 314 287 284 286 294 344 320 283 288 285 271 94 71 57 51 38 23 15 12 54 147 171 180 186 187 187 188 193 200 203 205 204 209 212 210 208 203 200 198
260 256 96 335 300 280 276 279 300 320 329 279 275 299 282 120 108 92 75 67 57 44 34 20 16 115 174 188 191 196 194 193 195 194 189 196 203 209 214 214 213 209 205 202
276 315 56 288 275 279 285 346 335 320 323 306 331 304 291 153 119 103 87 69 58 48 45 36 18 359 220 208 198 197 197 198 195 191 198 201 207 216 218 215 213 211 210 208
271 138 213 268 299 348 296 337 284 282 288 286 254 236 278 202 132 115 100 81 61 46 38 28 18 346 311 223 199 201 202 206 200 198 203 210 221 228 226 217 217 215 215 215
250 188 208 309 21 247 300 290 261 225 264 262 225 207 281 342 112 108 91 74 55 39 29 20 12 4 352 338 196 197 207 217 211 207 209 214 225 228 228 225 224 220 218 217
234 190 159 153 265 196 238 297 316 232 220 231 110 244 254 299 99 103 91 68 50 41 31 20 13 8 5 358 312 213 214 230 224 217 218 221 225 226 230 230 229 225 223 220
283 185 166 186 254 339 296 309 310 301 294 317 270 237 252 110 102 109 101 78 57 45 35 27 20 11 3 1 354 304 238 237 232 227 227 227 226 227 233 233 230 230 229 225
316 52 113 126 96 268 282 232 50 320 286 268 250 242 247 177 107 101 83 65 57 49 38 30 21 12 3 359 354 335 289 258 243 234 232 230 228 228 232 231 231 235 236 229
318 301 178 143 184 223 286 327 313 250 271 283 280 276 278 54 40 59 54 58 59 51 36 26 12 1 352 345 332 338 316 281 259 245 239 238 234 233 233 231 233 235 235 232
291 277 246 174 206 196 176 204 227 258 272 274 289 278 343 350 45 44 43 56 62 45 29 17 3 352 346 344 337 326 306 289 274 261 253 251 248 244 241 239 239 237 236 231
236 298 278 260 50 75 131 239 245 251 265 269 283 276 304 89 66 54 53 55 60 46 23 4 355 347 343 339 331 325 314 300 281 266 259 258 259 257 251 250 248 241 238 234
30 271 287 271 87 65 191 227 237 258 277 265 263 268 307 340 345 15 41 29 19 8 354 350 349 340 333 326 321 320 318 312 302 287 274 270 266 262 259 258 256 249 243 240
0 254 246 266 290 310 290 275 257 251 259 261 252 272 295 312 329 10 22 11 357 342 338 342 339 329 321 316 316 317 317 315 310 301 289 281 272 266 265 266 265 261 253 247
231 257 263 272 285 291 287 281 272 263 261 267 276 283 294 315 4 13 4 354 337 323 328 337 332 321 317 318 320 320 316 312 310 306 298 286 279 276 276 277 275 271 263 257
213 267 283 278 281 281 278 271 265 263 260 261 272 279 296 19 18 5 354 335 314 313 332 336 328 322 321 322 321 317 312 311 313 308 300 292 288 282 278 275 274 272 267 262
213 232 285 279 298 304 276 265 250 237 247 273 281 298 5 8 6 352 330 312 319 337 337 328 322 322 320 317 315 313 311 312 311 304 299 297 292 288 282 279 279 274 269 262
249 271 277 285 304 252 251 298 306 278 286 292 292 333 23 360 341 319 308 328 344 335 326 322 321 320 315 313 312 311 313 312 307 303 299 298 296 291 287 284 280 277 273 267
247 220 236 253 268 277 278 295 8 350 298 311 343 8 353 339 325 310 337 352 334 324 319 316 316 316 316 312 312 314 310 306 304 302 299 299 299 295 292 288 282 279 276 273
299 211 218 224 236 255 284 66 50 13 289 34 20 350 338 341 321 307 336 329 319 317 315 315 316 316 311 308 312 309 304 304 302 299 299 300 299 295 292 288 286 283 276 273
168 193 217 236 247 262 288 129 66 271 299 355 345 335 336 322 296 307 323 320 315 313 312 315 315 308 303 306 308 302 300 298 297 299 300 299 297 294 292 292 290 288 284 281
182 195 202 200 220 253 143 102 310 306 333 341 344 342 329 315 312 315 317 317 316 313 311 314 309 303 303 304 304 301 299 298 300 299 298 296 294 295 296 294 293 289 287 286
217 224 227 213 223 277 35 345 339 353 348 348 340 330 322 315 313 316 316 314 310 307 307 307 304 303 301 301 300 300 301 303 303 300 298 297 296 295 294 293 294 294 290 285
263 257 261 280 287 322 332 337 352 359 345 335 330 325 321 314 315 315 313 308 304 302 306 307 307 304 303 302 301 299 302 303 301 299 298 297 298 297 295 291 289 290 289 285
284 316 293 278 291 303 316 347 346 340 334 328 325 321 318 314 310 308 305 303 303 306 305 305 303 302 303 306 303 300 299 301 300 298 297 298 295 295 295 291 287 288 278 280
238 253 263 276 311 317 319 334 337 330 326 323 320 317 315 306 301 302 300 301 303 304 305 306 303 302 303 303 300 299 300 302 304 304 301 298 296 295 293 293 292 284 283 293